Location: *
(24.1434°N, 56.8729°E)
Time: 07:54:31
(UTC+00:00)

Delta 198 - Pass Details

Date: 09 April 2020
Orbit: 458 x 1020 km, 24.8° (Epoch: 25 May)

Event Time Altitude Azimuth Distance (km) Brightness Sun altitude
Rises 15:41:27 0° 271° (W) 3,072 8.6 -16.3°
Reaches altitude 10° 15:43:42 10° 272° (W) 2,240 7.6 -16.8°
Maximum altitude 15:49:06 84° 359° (N) 839 4.1 -18.0°
Enters shadow 15:52:21 30° 87° (E) 1,539 5.0 -18.7°
